Regional Weather Roundup
Issued by NWS Sioux Falls, SD

Home | Current Version | Previous Version | Graphics & Text | Print | Product List | Glossary Off
Versions: 1 2 3 4 5 6 7 8 9 10 11 12 13 14 15 16 17 18 19 20 21 22 23 24 25 26 27 28 29 30 31 32 33 34 35 36 37 38 39 40 41 42 43 44 45 46 47 48 49 50

000
ASUS43 KFSD 040110
RWRFSD

WEATHER ROUNDUP FOR SE SOUTH DAKOTA/SW MINNESOTA/NW IOWA
NATIONAL WEATHER SERVICE SIOUX FALLS SD
800 PM CDT MON AUG 03 2015

NOTE: "FAIR" INDICATES FEW OR NO CLOUDS BELOW 12,000 FEET WITH NO
SIGNIFICANT WEATHER AND OR OBSTRUCTIONS TO VISIBILITY.


SDZ038>040-050-052>070-040200-
SOUTHEAST SOUTH DAKOTA

CITY           SKY/WX    TMP DP  RH WIND       PRES   REMARKS
BROOKINGS      CLEAR     73  55  53 N5        29.97S
CHAMBERLAIN    PTCLDY    75  62  63 SE5       29.95R
HURON          CLEAR     78  57  48 NE5       29.94R
MADISON        FAIR      73  61  64 N5        29.97R
MITCHELL       CLEAR     77  62  59 NE7       29.94S
SIOUX FALLS    PTCLDY    78  62  57 NW5       29.95R
WINNER         FAIR      80  57  45 E10       29.95S
YANKTON        PTCLDY    77  63  61 E5        29.93R
$$

MNZ071-072-080-081-089-090-097-098-040200-
SOUTHWEST MINNESOTA

CITY           SKY/WX    TMP DP  RH WIND       PRES   REMARKS
FAIRMONT       CLEAR     73  55  53 N3        29.93S
JACKSON        CLEAR     73  59  60 NW5       29.96R
LUVERNE        CLEAR     77  59  53 CALM      29.96S
MARSHALL       CLEAR     73  54  49 N5        29.96S
MONTEVIDEO     CLEAR     73  54  49 N5        29.95S
PIPESTONE      CLEAR     75  55  50 N3        29.97R
REDWOOD FALLS  CLEAR     75  52  44 NW7       29.93R
TRACY          CLEAR     73  59  60 N5        29.95S
WINDOM         CLEAR     73  59  60 CALM      29.95R
WORTHINGTON    CLEAR     73  57  56 W5        29.96S
$$

IAZ001>003-012>014-020>022-031-032-NEZ013-014-SDZ071-040200-
NORTHWEST IOWA

CITY           SKY/WX    TMP DP  RH WIND       PRES   REMARKS
CHEROKEE       CLEAR     74  66  75 CALM      29.96R
DENISON        PTCLDY    75  64  69 CALM      29.94S
ESTHERVILLE    CLEAR     73  59  61 NW5       29.94S
LE MARS        CLEAR     77  64  65 CALM      29.96S
ORANGE CITY    CLEAR     73  63  68 CALM      29.96S
SHELDON        CLEAR     75  64  69 CALM      29.95R
SIOUX CITY     PTCLDY    76  62  62 SE6       29.94S
SPENCER        CLEAR     76  58  53 W6        29.96R
STORM LAKE     CLEAR     73  63  68 CALM      29.98R
$$

ABBREVIATIONS USED IN REMARKS
   TC - TEMPERATURE IN CELSIUS
  WCI - WIND CHILL INDEX
   HX - HEAT INDEX
  VSB - VISIBILITY




USA.gov is the U.S. government's official web portal to all federal, state and local government web resources and services.